FREGAT DEB, 45878

Orbit data source: Space-Track

FREGAT DEB, 45878 is space debris in LEO originally from a launch on Mon, 18 Jul 2011 UTC launched from the Tyuratam Missile And Space Complex (TTMTR). Debris objects in space refer to the collection of defunct objects orbiting the Earth. Examples of debris include non-operational satellites, rocket bodies, and fragments generated from explosions, collisions, or faulty payload assembly.

Loading next visibility...
Identifier
45878, 2011-037CX
Orbit
LEO
Country
Flag of CISCIS
Related business
Manufacturer
Lavochkin
Mission
Spacecraft
Bus & Motor
Unknown
Mass
Unknown
Launch date (UTC)
2011-07-18 (14 years ago)
Launch vehicle
Unknown
Launch site
Tyuratam Missile And Space Complex (TTMTR)
Object type
Payload
Rocket body
Debris
Shape & HBR
Unknown shape, 0.1 m
Radar Cross Section
Small (<0.1 m²)

Expand to show TLE details & history
Last TLE update: 11 hours ago

TLE from 11 hours ago
0 FREGAT DEB
1 45878U 11037CX  25340.90765920  .00043087  00000-0  59056-2 0  9995
2 45878  51.4166 302.2099 1285942 225.3565 123.5191 12.61900510230553
Epoch: 2025-12-06T21:47Z
TLE epoch observation values (Epoch: 2025-12-06T21:47:01.754Z)
Latitude
-0.00005°
Longitude
-100.47611°
Altitude
2,049.415 km
Speed
6.594 km/s
True Right ascension
20h 08m 50s
True Declination
0° 00' 00"
Sunlit
Object was in daylight at epoch
Visualization orbit readout
Latitude
Unknown
Longitude
Unknown
Altitude
Unknown
Speed
Unknown
Apparent Right ascension
Unknown
Apparent Declination
Unknown
Sunlit
N/A
Visualization observer readout
Local Sidereal Time
06:24:54
Azimuth
Unknown
Elevation
Unknown
Doppler factor
Unknown
Orbital elements
Apogee altitude
2,417.827 km
Perigee altitude
413.369 km
Semi-major axis
7,793.735 km
Eccentricity
0.12859
Inclination
51.4166°
RAAN
302.2099°
Arg. of periapsis
225.3565°
True anomaly
134.72893°
Mean anomaly
123.5191°
Eccentric anomaly
129.22665°
Mean motion
3.15446 °/min
Orbital period
114.12 mins
BSTAR
0.0059056
Loading maneuver chart data...
Computing Atmospheric mass density...
Loading historical data...
Loading historical data...
Loading historical data...
Loading historical data...
Loading historical data...
Loading historical data...
Loading historical data...

Documentation

Showing up to 5 results
|